Location: 81360 Arifat, France
(43.7204°N, 2.3408°E)
Time: 19:15:58
(UTC+02:00)

GHALIB - Pass Details

Date: 04 June 2022
Orbit: 510 x 523 km, 97.6° (Epoch: 29 June)

Event Time Altitude Azimuth Distance (km) Brightness Sun altitude
Exits shadow 02:52:12 24° 107° (ESE) 1,110 ? -22.3°
Maximum altitude 02:53:31 30° 70° (ENE) 946 ? -22.2°
Drops below altitude 10° 02:56:52 10° 8° (N) 1,757 ? -22.1°
Sets 02:59:07 0° 358° (N) 2,647 ? -21.9°
